Location: Unspecified
(51.0950°N, 12.9690°E)
Time: 07:13:56
(UTC+00:00)

NOAA 16 DEB - Visible Passes

Search period start: 16 July 2024 00:00
Search period end: 26 July 2024 00:00
Orbit: 745 x 797 km, 99.0° (Epoch: 15 July)

Date Brightness Start Highest point End Pass type
(mag) Time Alt. Az. Time Alt. Az. Time Alt. Az.
16 Jul ? 00:50:51 10° E 00:54:01 17° NE 00:57:13 10° NNE visible
17 Jul ? 01:52:43 10° SE 01:57:28 48° ENE 02:02:15 10° N visible
18 Jul ? 01:18:33 10° ESE 01:22:40 27° ENE 01:26:48 10° N visible
19 Jul ? 00:45:07 10° E 00:48:00 16° NE 00:50:54 10° NNE visible
19 Jul ? 02:21:20 10° SSE 02:26:18 80° ENE 02:31:20 10° NNW visible
20 Jul ? 01:46:39 10° SE 01:51:19 42° ENE 01:56:02 10° N visible
21 Jul ? 01:12:33 10° ESE 01:16:28 24° ENE 01:20:27 10° N visible
22 Jul ? 00:39:15 10° E 00:41:48 14° NE 00:44:22 10° NNE visible
22 Jul ? 02:15:03 10° SSE 02:19:59 70° ENE 02:25:01 10° NNW visible
23 Jul ? 01:40:25 10° SE 01:44:59 38° ENE 01:49:36 10° N visible
24 Jul ? 01:06:23 10° ESE 01:10:07 22° NE 01:13:53 10° N visible
25 Jul ? 00:33:18 10° ENE 00:35:25 13° NE 00:37:33 10° NNE visible
25 Jul ? 02:08:36 10° SSE 02:13:31 62° ENE 02:18:29 10° N visible
